| time (UTC) | temp F | wind direction | speed MPH | gust MPH | rain 1hr in | rain 24hr in | rain mn in | humidity % | barometer mb |
| 20260903020319 | 82 | 181 | 0.0 | 0.0 | 0.00 | 0.00 | 0.00 | 80 | 1010.9 |
| 20260903015837 | 82 | 181 | 0.0 | 0.0 | 0.00 | 0.00 | 0.00 | 80 | 1010.9 |
| 20260903015315 | 82 | 185 | 0.0 | 0.0 | 0.00 | 0.00 | 0.00 | 79 | 1010.9 |
| 20260903014817 | 83 | 186 | 0.0 | 0.0 | 0.00 | 0.00 | 0.00 | 79 | 1010.9 |
| 20260903014320 | 83 | 185 | 0.0 | 0.0 | 0.00 | 0.00 | 0.00 | 79 | 1010.9 |
| 20260903013825 | 83 | 185 | 0.0 | 0.0 | 0.00 | 0.00 | 0.00 | 79 | 1010.9 |
| 20260903013333 | 83 | 185 | 0.0 | 0.0 | 0.00 | 0.00 | 0.00 | 78 | 1010.9 |
| 20260903012816 | 84 | 184 | 0.0 | 0.0 | 0.00 | 0.00 | 0.00 | 78 | 1010.9 |
| 20260903012316 | 84 | 180 | 0.0 | 0.0 | 0.00 | 0.00 | 0.00 | 78 | 1010.9 |
| 20260903011835 | 84 | 190 | 0.0 | 0.0 | 0.00 | 0.00 | 0.00 | 77 | 1010.7 |
| 20260903011342 | 84 | 186 | 0.0 | 0.0 | 0.00 | 0.00 | 0.00 | 77 | 1010.7 |
| 20260903010823 | 84 | 186 | 0.0 | 0.0 | 0.00 | 0.00 | 0.00 | 76 | 1010.7 |
| 20260903010325 | 85 | 186 | 0.0 | 0.0 | 0.00 | 0.00 | 0.00 | 76 | 1010.7 |
| 20260903005827 | 85 | 186 | 0.0 | 0.0 | 0.00 | 0.00 | 0.00 | 76 | 1010.7 |
| 20260903005334 | 85 | 186 | 0.0 | 0.0 | 0.00 | 0.00 | 0.00 | 75 | 1010.7 |
| 20260903004818 | 85 | 186 | 0.0 | 0.0 | 0.00 | 0.00 | 0.00 | 75 | 1010.7 |
| 20260903004352 | 86 | 186 | 0.0 | 0.0 | 0.00 | 0.00 | 0.00 | 74 | 1010.7 |
| 20260903003852 | 86 | 186 | 0.0 | 0.0 | 0.00 | 0.00 | 0.00 | 74 | 1010.7 |
| 20260903003345 | 86 | 186 | 0.0 | 1.0 | 0.00 | 0.00 | 0.00 | 73 | 1010.6 |
| 20260903002832 | 87 | 176 | 0.0 | 1.0 | 0.00 | 0.00 | 0.00 | 73 | 1010.6 |
| 20260903002314 | 87 | 169 | 0.0 | 1.0 | 0.00 | 0.00 | 0.00 | 73 | 1010.6 |
| 20260903001817 | 87 | 195 | 0.0 | 0.0 | 0.00 | 0.00 | 0.00 | 72 | 1010.7 |
| 20260903001401 | 87 | 197 | 0.0 | 1.0 | 0.00 | 0.00 | 0.00 | 72 | 1010.7 |
| 20260903000817 | 88 | 200 | 0.0 | 4.0 | 0.00 | 0.00 | 0.00 | 71 | 1010.7 |
| 20260903000321 | 88 | 200 | 0.0 | 4.0 | 0.00 | 0.00 | 0.00 | 70 | 1010.8 |
| 20260902235820 | 88 | 214 | 0.0 | 4.0 | 0.00 | 0.00 | 0.00 | 70 | 1010.8 |
| 20260902235328 | 88 | 218 | 0.0 | 4.0 | 0.00 | 0.00 | 0.00 | 69 | 1010.8 |
| 20260902234843 | 89 | 180 | 0.0 | 5.0 | 0.00 | 0.00 | 0.00 | 69 | 1010.8 |
| 20260902234328 | 89 | 219 | 1.0 | 5.0 | 0.00 | 0.00 | 0.00 | 68 | 1010.8 |
| 20260902233851 | 89 | 190 | 0.0 | 8.0 | 0.00 | 0.00 | 0.00 | 68 | 1010.8 |
| 20260902233320 | 90 | 219 | 1.0 | 8.0 | 0.00 | 0.00 | 0.00 | 67 | 1010.7 |
| 20260902232821 | 90 | 221 | 1.0 | 10.0 | 0.00 | 0.00 | 0.00 | 67 | 1010.7 |
| 20260902232338 | 90 | 188 | 2.0 | 10.0 | 0.00 | 0.00 | 0.00 | 66 | 1010.7 |
| 20260902231845 | 90 | 221 | 4.0 | 10.0 | 0.00 | 0.00 | 0.00 | 66 | 1010.7 |
| 20260902231330 | 90 | 188 | 1.0 | 8.0 | 0.00 | 0.00 | 0.00 | 65 | 1010.7 |
| 20260902230815 | 91 | 238 | 2.0 | 8.0 | 0.00 | 0.00 | 0.00 | 65 | 1010.7 |
| 20260902230322 | 91 | 224 | 3.0 | 8.0 | 0.00 | 0.00 | 0.00 | 65 | 1010.7 |
| 20260902225838 | 91 | 234 | 2.0 | 13.0 | 0.00 | 0.00 | 0.00 | 65 | 1010.7 |
| 20260902225342 | 91 | 223 | 5.0 | 13.0 | 0.00 | 0.00 | 0.00 | 64 | 1010.7 |
| 20260902224827 | 91 | 227 | 2.0 | 11.0 | 0.00 | 0.00 | 0.00 | 65 | 1010.7 |
| 20260902224330 | 91 | 222 | 5.0 | 14.0 | 0.00 | 0.00 | 0.00 | 64 | 1010.7 |
| 20260902223815 | 91 | 217 | 8.0 | 14.0 | 0.00 | 0.00 | 0.00 | 63 | 1010.7 |
| 20260902223317 | 91 | 206 | 5.0 | 18.0 | 0.00 | 0.00 | 0.00 | 63 | 1010.7 |
| 20260902222819 | 91 | 224 | 10.0 | 18.0 | 0.00 | 0.00 | 0.00 | 63 | 1010.7 |
| 20260902222325 | 92 | 219 | 6.0 | 11.0 | 0.00 | 0.00 | 0.00 | 64 | 1010.7 |
| 20260902221904 | 91 | 219 | 2.0 | 15.0 | 0.00 | 0.00 | 0.00 | 63 | 1010.9 |
| 20260902221326 | 91 | 207 | 6.0 | 16.0 | 0.00 | 0.00 | 0.00 | 62 | 1010.9 |
| 20260902220852 | 92 | 219 | 6.0 | 16.0 | 0.00 | 0.00 | 0.00 | 61 | 1010.9 |
| 20260902220314 | 92 | 211 | 3.0 | 12.0 | 0.00 | 0.00 | 0.00 | 61 | 1010.8 |
| 20260902215816 | 92 | 223 | 5.0 | 15.0 | 0.00 | 0.00 | 0.00 | 61 | 1010.8 |
| 20260902215352 | 92 | 203 | 7.0 | 15.0 | 0.00 | 0.00 | 0.00 | 60 | 1010.8 |
| 20260902214820 | 92 | 202 | 6.0 | 15.0 | 0.00 | 0.00 | 0.00 | 60 | 1010.9 |
| 20260902214333 | 92 | 207 | 5.0 | 15.0 | 0.00 | 0.00 | 0.00 | 59 | 1010.9 |
| 20260902213815 | 92 | 214 | 6.0 | 18.0 | 0.00 | 0.00 | 0.00 | 59 | 1010.9 |
| 20260902213320 | 93 | 214 | 8.0 | 21.0 | 0.00 | 0.00 | 0.00 | 58 | 1011.0 |
| 20260902212824 | 93 | 215 | 7.0 | 18.0 | 0.00 | 0.00 | 0.00 | 57 | 1011.0 |
| 20260902212312 | 93 | 198 | 7.0 | 18.0 | 0.00 | 0.00 | 0.00 | 57 | 1011.0 |
| 20260902211831 | 93 | 217 | 5.0 | 15.0 | 0.00 | 0.00 | 0.00 | 59 | 1010.9 |
| 20260902211314 | 93 | 202 | 6.0 | 16.0 | 0.00 | 0.00 | 0.00 | 58 | 1010.9 |
| 20260902210828 | 93 | 194 | 7.0 | 16.0 | 0.00 | 0.00 | 0.00 | 58 | 1010.9 |
| 20260902210332 | 93 | 233 | 9.0 | 19.0 | 0.00 | 0.01 | 0.00 | 59 | 1011.2 |
| 20260902205816 | 93 | 207 | 11.0 | 19.0 | 0.00 | 0.01 | 0.00 | 59 | 1011.2 |
| 20260902205319 | 93 | 208 | 10.0 | 16.0 | 0.00 | 0.01 | 0.00 | 58 | 1011.2 |
| 20260902204826 | 93 | 217 | 8.0 | 16.0 | 0.00 | 0.01 | 0.00 | 58 | 1011.3 |
| 20260902204313 | 93 | 215 | 6.0 | 11.0 | 0.00 | 0.01 | 0.00 | 58 | 1011.3 |
| 20260902203825 | 93 | 165 | 7.0 | 18.0 | 0.00 | 0.01 | 0.00 | 58 | 1011.3 |
| 20260902203341 | 93 | 207 | 10.0 | 18.0 | 0.00 | 0.01 | 0.00 | 59 | 1011.3 |
| 20260902202829 | 93 | 167 | 7.0 | 18.0 | 0.00 | 0.01 | 0.00 | 59 | 1011.3 |
| 20260902202339 | 93 | 199 | 8.0 | 19.0 | 0.00 | 0.01 | 0.00 | 59 | 1011.3 |
| 20260902201823 | 93 | 178 | 6.0 | 16.0 | 0.00 | 0.01 | 0.00 | 58 | 1011.4 |
| 20260902201329 | 94 | 202 | 9.0 | 16.0 | 0.00 | 0.01 | 0.00 | 59 | 1011.4 |
| 20260902200833 | 94 | 217 | 7.0 | 14.0 | 0.00 | 0.01 | 0.00 | 60 | 1011.4 |
| 20260902200318 | 94 | 213 | 6.0 | 12.0 | 0.00 | 0.01 | 0.00 | 59 | 1011.8 |
| 20260902195832 | 94 | 198 | 6.0 | 14.0 | 0.00 | 0.01 | 0.00 | 59 | 1011.8 |
| 20260902195333 | 94 | 183 | 7.0 | 14.0 | 0.00 | 0.01 | 0.00 | 59 | 1011.8 |
| 20260902194836 | 94 | 184 | 7.0 | 13.0 | 0.00 | 0.01 | 0.00 | 60 | 1011.8 |
| 20260902194320 | 94 | 188 | 5.0 | 15.0 | 0.00 | 0.01 | 0.00 | 60 | 1011.8 |
| 20260902193827 | 94 | 180 | 6.0 | 14.0 | 0.00 | 0.01 | 0.00 | 60 | 1011.8 |
| 20260902193330 | 94 | 224 | 9.0 | 14.0 | 0.00 | 0.01 | 0.00 | 60 | 1012.0 |
| 20260902192813 | 94 | 188 | 6.0 | 12.0 | 0.00 | 0.01 | 0.00 | 61 | 1012.0 |
| 20260902192317 | 94 | 217 | 6.0 | 12.0 | 0.00 | 0.01 | 0.00 | 60 | 1012.0 |
| 20260902191824 | 94 | 246 | 5.0 | 15.0 | 0.00 | 0.01 | 0.00 | 62 | 1012.3 |
| 20260902191343 | 93 | 209 | 7.0 | 14.0 | 0.00 | 0.01 | 0.00 | 61 | 1012.3 |
| 20260902190826 | 93 | 191 | 5.0 | 11.0 | 0.00 | 0.01 | 0.00 | 62 | 1012.3 |
| 20260902190316 | 93 | 207 | 6.0 | 11.0 | 0.00 | 0.01 | 0.00 | 63 | 1012.3 |
| 20260902185815 | 93 | 172 | 5.0 | 10.0 | 0.00 | 0.01 | 0.00 | 62 | 1012.3 |
| 20260902185324 | 94 | 179 | 5.0 | 14.0 | 0.00 | 0.01 | 0.00 | 61 | 1012.3 |
| 20260902184902 | 94 | 202 | 6.0 | 14.0 | 0.00 | 0.01 | 0.00 | 61 | 1012.4 |
| 20260902184346 | 93 | 215 | 9.0 | 14.0 | 0.00 | 0.01 | 0.00 | 62 | 1012.4 |
| 20260902183826 | 93 | 250 | 7.0 | 12.0 | 0.00 | 0.01 | 0.00 | 60 | 1012.4 |
| 20260902183358 | 93 | 217 | 2.0 | 15.0 | 0.00 | 0.01 | 0.00 | 62 | 1012.5 |
| 20260902182820 | 93 | 212 | 6.0 | 15.0 | 0.00 | 0.01 | 0.00 | 63 | 1012.5 |
| 20260902182327 | 93 | 183 | 4.0 | 12.0 | 0.00 | 0.01 | 0.00 | 61 | 1012.5 |
| 20260902181839 | 93 | 196 | 4.0 | 12.0 | 0.00 | 0.01 | 0.00 | 62 | 1012.6 |
| 20260902181329 | 93 | 192 | 5.0 | 13.0 | 0.00 | 0.01 | 0.00 | 63 | 1012.6 |
| 20260902180836 | 92 | 223 | 5.0 | 13.0 | 0.00 | 0.01 | 0.00 | 64 | 1012.6 |
| 20260902180336 | 92 | 219 | 6.0 | 12.0 | 0.00 | 0.01 | 0.00 | 63 | 1012.8 |
| 20260902175817 | 92 | 217 | 3.0 | 12.0 | 0.00 | 0.01 | 0.00 | 65 | 1012.8 |
| 20260902175315 | 92 | 198 | 3.0 | 9.0 | 0.00 | 0.01 | 0.00 | 65 | 1012.8 |
| 20260902174830 | 92 | 171 | 4.0 | 11.0 | 0.00 | 0.01 | 0.00 | 64 | 1012.9 |
| 20260902174336 | 91 | 194 | 5.0 | 12.0 | 0.00 | 0.01 | 0.00 | 65 | 1012.9 |
| 20260902173839 | 91 | 219 | 2.0 | 12.0 | 0.00 | 0.01 | 0.00 | 66 | 1012.9 |
| 20260902173319 | 91 | 226 | 4.0 | 11.0 | 0.00 | 0.01 | 0.00 | 65 | 1013.1 |
| 20260902172817 | 91 | 209 | 6.0 | 11.0 | 0.00 | 0.01 | 0.00 | 66 | 1013.1 |
| 20260902172331 | 91 | 189 | 5.0 | 11.0 | 0.00 | 0.01 | 0.00 | 65 | 1013.1 |
| 20260902171836 | 91 | 227 | 5.0 | 11.0 | 0.00 | 0.01 | 0.00 | 66 | 1013.1 |
| 20260902171322 | 90 | 215 | 4.0 | 8.0 | 0.00 | 0.01 | 0.00 | 67 | 1013.1 |
| 20260902170821 | 90 | 213 | 3.0 | 8.0 | 0.00 | 0.01 | 0.00 | 70 | 1013.1 |
| 20260902170327 | 89 | 199 | 1.0 | 8.0 | 0.00 | 0.01 | 0.00 | 71 | 1013.4 |
| 20260902165841 | 89 | 186 | 4.0 | 8.0 | 0.00 | 0.01 | 0.00 | 68 | 1013.4 |
| 20260902165323 | 89 | 155 | 3.0 | 12.0 | 0.00 | 0.01 | 0.00 | 69 | 1013.4 |
| 20260902164826 | 89 | 225 | 5.0 | 13.0 | 0.00 | 0.01 | 0.00 | 70 | 1013.5 |
| 20260902164328 | 88 | 215 | 6.0 | 12.0 | 0.00 | 0.01 | 0.00 | 69 | 1013.5 |
| 20260902163844 | 88 | 218 | 5.0 | 9.0 | 0.00 | 0.01 | 0.00 | 69 | 1013.5 |
| 20260902163329 | 88 | 169 | 5.0 | 8.0 | 0.00 | 0.01 | 0.00 | 69 | 1013.6 |
| 20260902162852 | 88 | 172 | 5.0 | 8.0 | 0.00 | 0.01 | 0.00 | 69 | 1013.6 |
| 20260902162315 | 88 | 194 | 2.0 | 12.0 | 0.00 | 0.01 | 0.00 | 70 | 1013.6 |
| 20260902161823 | 88 | 238 | 3.0 | 12.0 | 0.00 | 0.01 | 0.00 | 71 | 1013.8 |
| 20260902161355 | 87 | 209 | 1.0 | 7.0 | 0.00 | 0.01 | 0.00 | 72 | 1013.8 |
| 20260902160842 | 87 | 234 | 0.0 | 10.0 | 0.00 | 0.01 | 0.00 | 72 | 1013.8 |
| 20260902160328 | 87 | 254 | 3.0 | 11.0 | 0.00 | 0.13 | 0.00 | 71 | 1013.7 |
| 20260902155816 | 87 | 239 | 2.0 | 8.0 | 0.00 | 0.13 | 0.00 | 71 | 1013.7 |
| 20260902155322 | 87 | 221 | 2.0 | 7.0 | 0.00 | 0.13 | 0.00 | 71 | 1013.7 |
| 20260902154837 | 87 | 202 | 2.0 | 10.0 | 0.00 | 0.13 | 0.00 | 71 | 1013.6 |
| 20260902154347 | 87 | 207 | 3.0 | 10.0 | 0.00 | 0.13 | 0.00 | 72 | 1013.6 |
| 20260902153829 | 87 | 216 | 5.0 | 9.0 | 0.00 | 0.13 | 0.00 | 72 | 1013.6 |
| 20260902153314 | 87 | 229 | 2.0 | 6.0 | 0.00 | 0.13 | 0.00 | 73 | 1013.6 |
| 20260902152854 | 86 | 249 | 1.0 | 8.0 | 0.00 | 0.13 | 0.00 | 73 | 1013.6 |
| 20260902152312 | 86 | 232 | 3.0 | 11.0 | 0.00 | 0.13 | 0.00 | 73 | 1013.6 |
| 20260902151819 | 86 | 224 | 2.0 | 11.0 | 0.00 | 0.13 | 0.00 | 73 | 1013.5 |
| 20260902151323 | 86 | 223 | 2.0 | 10.0 | 0.00 | 0.13 | 0.00 | 73 | 1013.5 |
| 20260902150823 | 86 | 221 | 4.0 | 9.0 | 0.00 | 0.13 | 0.00 | 73 | 1013.5 |
| 20260902150345 | 86 | 242 | 4.0 | 9.0 | 0.00 | 0.13 | 0.00 | 74 | 1013.4 |
| 20260902145831 | 86 | 218 | 4.0 | 8.0 | 0.00 | 0.13 | 0.00 | 73 | 1013.4 |
| 20260902144819 | 85 | 226 | 5.0 | 11.0 | 0.00 | 0.13 | 0.00 | 75 | 1013.4 |
| 20260902144319 | 85 | 235 | 5.0 | 10.0 | 0.00 | 0.13 | 0.00 | 76 | 1013.4 |
| 20260902143826 | 85 | 255 | 7.0 | 10.0 | 0.00 | 0.13 | 0.00 | 75 | 1013.4 |
| 20260902143338 | 85 | 218 | 5.0 | 9.0 | 0.00 | 0.13 | 0.00 | 76 | 1013.3 |
| 20260902142845 | 84 | 257 | 6.0 | 9.0 | 0.00 | 0.13 | 0.00 | 76 | 1013.3 |
| 20260902142325 | 84 | 213 | 3.0 | 9.0 | 0.00 | 0.13 | 0.00 | 78 | 1013.3 |
| 20260902141827 | 84 | 221 | 5.0 | 9.0 | 0.00 | 0.13 | 0.00 | 77 | 1013.3 |
| 20260902141330 | 83 | 238 | 3.0 | 9.0 | 0.00 | 0.13 | 0.00 | 78 | 1013.3 |
| 20260902140902 | 83 | 216 | 4.0 | 11.0 | 0.00 | 0.13 | 0.00 | 79 | 1013.3 |
| 20260902140346 | 82 | 244 | 3.0 | 11.0 | 0.00 | 0.13 | 0.00 | 79 | 1013.3 |
| 20260902135821 | 82 | 217 | 4.0 | 11.0 | 0.00 | 0.13 | 0.00 | 80 | 1013.3 |
| 20260902135327 | 82 | 232 | 7.0 | 11.0 | 0.00 | 0.13 | 0.00 | 80 | 1013.3 |
| 20260902134824 | 81 | 252 | 3.0 | 8.0 | 0.00 | 0.13 | 0.00 | 81 | 1013.2 |
| 20260902134323 | 81 | 223 | 5.0 | 8.0 | 0.00 | 0.13 | 0.00 | 81 | 1013.2 |
| 20260902133829 | 80 | 235 | 1.0 | 10.0 | 0.00 | 0.13 | 0.00 | 82 | 1013.2 |
| 20260902133330 | 80 | 236 | 1.0 | 10.0 | 0.00 | 0.13 | 0.00 | 82 | 1013.3 |
| 20260902132846 | 80 | 219 | 0.0 | 4.0 | 0.00 | 0.13 | 0.00 | 82 | 1013.3 |
| 20260902132325 | 79 | 229 | 0.0 | 2.0 | 0.00 | 0.13 | 0.00 | 81 | 1013.3 |
| 20260902131824 | 79 | 229 | 0.0 | 6.0 | 0.00 | 0.13 | 0.00 | 81 | 1013.3 |
| 20260902131330 | 78 | 229 | 2.0 | 6.0 | 0.00 | 0.13 | 0.00 | 79 | 1013.3 |
| 20260902130902 | 78 | 215 | 0.0 | 7.0 | 0.00 | 0.13 | 0.00 | 78 | 1013.3 |
| 20260902130324 | 77 | 216 | 2.0 | 7.0 | 0.00 | 0.13 | 0.00 | 77 | 1013.3 |
| 20260902125825 | 77 | 222 | 1.0 | 7.0 | 0.00 | 0.13 | 0.00 | 76 | 1013.3 |
| 20260902125314 | 77 | 207 | 0.0 | 7.0 | 0.00 | 0.13 | 0.00 | 75 | 1013.3 |
| 20260902124814 | 76 | 244 | 0.0 | 4.0 | 0.00 | 0.13 | 0.00 | 75 | 1013.2 |
| 20260902124317 | 76 | 215 | 0.0 | 2.0 | 0.00 | 0.13 | 0.00 | 75 | 1013.2 |
| 20260902123823 | 76 | 215 | 0.0 | 2.0 | 0.00 | 0.13 | 0.00 | 75 | 1013.2 |
| 20260902123338 | 75 | 215 | 0.0 | 0.0 | 0.00 | 0.13 | 0.00 | 74 | 1013.2 |
| 20260902122839 | 75 | 215 | 0.0 | 4.0 | 0.00 | 0.13 | 0.00 | 74 | 1013.2 |
| 20260902122320 | 75 | 215 | 0.0 | 6.0 | 0.00 | 0.13 | 0.00 | 75 | 1013.2 |
| 20260902121831 | 74 | 215 | 0.0 | 6.0 | 0.00 | 0.13 | 0.00 | 75 | 1013.4 |
| 20260902121316 | 74 | 215 | 1.0 | 5.0 | 0.00 | 0.13 | 0.00 | 75 | 1013.4 |
| 20260902120824 | 74 | 207 | 0.0 | 8.0 | 0.00 | 0.13 | 0.00 | 75 | 1013.4 |
| 20260902120330 | 74 | 227 | 0.0 | 5.0 | 0.00 | 0.13 | 0.00 | 75 | 1013.4 |
| 20260902115814 | 74 | 227 | 0.0 | 6.0 | 0.00 | 0.13 | 0.00 | 75 | 1013.4 |
| 20260902115313 | 74 | 227 | 1.0 | 6.0 | 0.00 | 0.13 | 0.00 | 75 | 1013.4 |
| 20260902114851 | 73 | 229 | 0.0 | 0.0 | 0.00 | 0.13 | 0.00 | 75 | 1013.1 |
| 20260902114333 | 73 | 229 | 0.0 | 0.0 | 0.00 | 0.13 | 0.00 | 75 | 1013.1 |
| 20260902113821 | 73 | 229 | 0.0 | 0.0 | 0.00 | 0.13 | 0.00 | 75 | 1013.1 |
| 20260902113339 | 73 | 229 | 0.0 | 0.0 | 0.00 | 0.13 | 0.00 | 75 | 1013.0 |
| 20260902112827 | 73 | 229 | 0.0 | 0.0 | 0.00 | 0.13 | 0.00 | 75 | 1013.0 |
| 20260902112332 | 73 | 229 | 0.0 | 0.0 | 0.00 | 0.13 | 0.00 | 75 | 1013.0 |
| 20260902111817 | 73 | 229 | 0.0 | 0.0 | 0.00 | 0.13 | 0.00 | 75 | 1013.1 |
| 20260902111322 | 73 | 229 | 0.0 | 0.0 | 0.00 | 0.13 | 0.00 | 75 | 1013.1 |
| 20260902110843 | 73 | 229 | 0.0 | 0.0 | 0.00 | 0.13 | 0.00 | 75 | 1013.1 |
| 20260902110342 | 73 | 229 | 0.0 | 0.0 | 0.00 | 0.13 | 0.00 | 75 | 1013.1 |
| 20260902105821 | 73 | 229 | 0.0 | 0.0 | 0.00 | 0.13 | 0.00 | 75 | 1013.1 |
| 20260902105324 | 73 | 229 | 0.0 | 0.0 | 0.00 | 0.13 | 0.00 | 75 | 1013.1 |
| 20260902104828 | 73 | 229 | 0.0 | 0.0 | 0.00 | 0.13 | 0.00 | 76 | 1013.1 |
| 20260902104316 | 73 | 229 | 0.0 | 0.0 | 0.00 | 0.13 | 0.00 | 76 | 1013.1 |
| 20260902103817 | 73 | 229 | 0.0 | 0.0 | 0.00 | 0.13 | 0.00 | 76 | 1013.1 |
| 20260902103337 | 73 | 229 | 0.0 | 0.0 | 0.00 | 0.13 | 0.00 | 76 | 1013.0 |
| 20260902102826 | 73 | 229 | 0.0 | 0.0 | 0.00 | 0.13 | 0.00 | 76 | 1013.0 |
| 20260902102332 | 73 | 229 | 0.0 | 0.0 | 0.00 | 0.13 | 0.00 | 76 | 1013.0 |
| 20260902101821 | 73 | 229 | 0.0 | 0.0 | 0.00 | 0.13 | 0.00 | 76 | 1013.1 |
| 20260902101325 | 73 | 229 | 0.0 | 0.0 | 0.00 | 0.13 | 0.00 | 76 | 1013.1 |
| 20260902100830 | 73 | 229 | 0.0 | 0.0 | 0.00 | 0.13 | 0.00 | 76 | 1013.1 |
| 20260902100333 | 74 | 229 | 0.0 | 0.0 | 0.00 | 0.13 | 0.00 | 76 | 1013.0 |
| 20260902095819 | 74 | 229 | 0.0 | 0.0 | 0.00 | 0.13 | 0.00 | 76 | 1013.0 |
| 20260902095337 | 74 | 229 | 0.0 | 0.0 | 0.00 | 0.13 | 0.00 | 76 | 1013.0 |
| 20260902094823 | 74 | 229 | 0.0 | 0.0 | 0.00 | 0.13 | 0.00 | 76 | 1012.9 |
| 20260902094327 | 74 | 229 | 0.0 | 0.0 | 0.00 | 0.13 | 0.00 | 76 | 1012.9 |
| 20260902093830 | 74 | 229 | 0.0 | 0.0 | 0.00 | 0.13 | 0.00 | 76 | 1012.9 |
| 20260902093316 | 74 | 229 | 0.0 | 0.0 | 0.00 | 0.13 | 0.00 | 76 | 1013.0 |
| 20260902092817 | 74 | 229 | 0.0 | 0.0 | 0.00 | 0.13 | 0.00 | 76 | 1013.0 |
| 20260902092328 | 74 | 229 | 0.0 | 0.0 | 0.00 | 0.13 | 0.00 | 76 | 1013.0 |
| 20260902091903 | 74 | 229 | 0.0 | 0.0 | 0.00 | 0.13 | 0.00 | 76 | 1012.9 |
| 20260902091318 | 74 | 229 | 0.0 | 0.0 | 0.00 | 0.13 | 0.00 | 76 | 1012.9 |
| 20260902090845 | 74 | 229 | 0.0 | 0.0 | 0.00 | 0.13 | 0.00 | 76 | 1012.9 |
| 20260902090348 | 74 | 229 | 0.0 | 0.0 | 0.00 | 0.13 | 0.00 | 76 | 1012.9 |
| 20260902085831 | 75 | 229 | 0.0 | 0.0 | 0.00 | 0.13 | 0.00 | 76 | 1012.9 |
| 20260902085321 | 75 | 229 | 0.0 | 0.0 | 0.00 | 0.13 | 0.00 | 76 | 1012.9 |
| 20260902084829 | 75 | 229 | 0.0 | 0.0 | 0.00 | 0.13 | 0.00 | 76 | 1012.8 |
| 20260902084343 | 75 | 229 | 0.0 | 0.0 | 0.00 | 0.13 | 0.00 | 76 | 1012.8 |
| 20260902083828 | 75 | 229 | 0.0 | 0.0 | 0.00 | 0.13 | 0.00 | 76 | 1012.8 |
| 20260902083352 | 75 | 229 | 0.0 | 0.0 | 0.00 | 0.13 | 0.00 | 76 | 1012.8 |
| 20260902082832 | 75 | 229 | 0.0 | 0.0 | 0.00 | 0.13 | 0.00 | 76 | 1012.8 |
| 20260902082316 | 75 | 229 | 0.0 | 0.0 | 0.00 | 0.13 | 0.00 | 76 | 1012.8 |
| 20260902081830 | 75 | 229 | 0.0 | 0.0 | 0.00 | 0.13 | 0.00 | 76 | 1012.6 |
| 20260902081339 | 75 | 229 | 0.0 | 0.0 | 0.00 | 0.13 | 0.00 | 76 | 1012.6 |
| 20260902080823 | 75 | 229 | 0.0 | 0.0 | 0.00 | 0.13 | 0.00 | 76 | 1012.6 |
| 20260902080335 | 75 | 229 | 0.0 | 0.0 | 0.00 | 0.13 | 0.00 | 76 | 1012.5 |
| 20260902075820 | 75 | 229 | 0.0 | 0.0 | 0.00 | 0.13 | 0.00 | 76 | 1012.5 |
| 20260902075318 | 75 | 229 | 0.0 | 0.0 | 0.00 | 0.13 | 0.00 | 76 | 1012.5 |
| 20260902074824 | 75 | 229 | 0.0 | 0.0 | 0.00 | 0.13 | 0.00 | 76 | 1012.4 |
| 20260902074401 | 75 | 229 | 0.0 | 0.0 | 0.00 | 0.13 | 0.00 | 76 | 1012.4 |
| 20260902073814 | 75 | 229 | 0.0 | 0.0 | 0.00 | 0.13 | 0.00 | 76 | 1012.4 |
| 20260902073348 | 75 | 229 | 0.0 | 0.0 | 0.00 | 0.13 | 0.00 | 76 | 1012.4 |
| 20260902072832 | 75 | 229 | 0.0 | 0.0 | 0.00 | 0.13 | 0.00 | 76 | 1012.4 |
| 20260902072406 | 75 | 229 | 0.0 | 0.0 | 0.00 | 0.13 | 0.00 | 76 | 1012.4 |
| 20260902071852 | 75 | 229 | 0.0 | 0.0 | 0.00 | 0.13 | 0.00 | 76 | 1012.2 |
| 20260902071320 | 75 | 229 | 0.0 | 0.0 | 0.00 | 0.13 | 0.00 | 76 | 1012.2 |
| 20260902070853 | 75 | 229 | 0.0 | 0.0 | 0.00 | 0.13 | 0.00 | 76 | 1012.2 |
| 20260902070355 | 75 | 229 | 0.0 | 0.0 | 0.00 | 0.13 | 0.00 | 77 | 1012.3 |
| 20260902065818 | 75 | 229 | 0.0 | 0.0 | 0.00 | 0.13 | 0.00 | 77 | 1012.3 |
| 20260902065350 | 75 | 229 | 0.0 | 0.0 | 0.00 | 0.13 | 0.00 | 77 | 1012.3 |
| 20260902064815 | 75 | 229 | 0.0 | 0.0 | 0.00 | 0.13 | 0.00 | 77 | 1012.2 |
| 20260902064331 | 75 | 229 | 0.0 | 0.0 | 0.00 | 0.13 | 0.00 | 77 | 1012.2 |
| 20260902063817 | 75 | 229 | 0.0 | 0.0 | 0.00 | 0.13 | 0.00 | 77 | 1012.2 |
| 20260902063322 | 75 | 229 | 0.0 | 0.0 | 0.00 | 0.13 | 0.00 | 77 | 1012.4 |
| 20260902062826 | 75 | 229 | 0.0 | 0.0 | 0.00 | 0.13 | 0.00 | 77 | 1012.4 |
| 20260902062337 | 75 | 229 | 0.0 | 0.0 | 0.00 | 0.13 | 0.00 | 77 | 1012.4 |
| 20260902061821 | 75 | 229 | 0.0 | 0.0 | 0.00 | 0.13 | 0.00 | 78 | 1012.6 |
| 20260902061347 | 75 | 229 | 0.0 | 0.0 | 0.00 | 0.13 | 0.00 | 78 | 1012.6 |
| 20260902060835 | 75 | 229 | 0.0 | 0.0 | 0.00 | 0.13 | 0.00 | 78 | 1012.6 |
| 20260902060343 | 75 | 229 | 0.0 | 0.0 | 0.00 | 0.13 | 0.00 | 78 | 1012.7 |
| 20260902055824 | 75 | 229 | 0.0 | 0.0 | 0.00 | 0.13 | 0.00 | 78 | 1012.7 |
| 20260902055315 | 75 | 229 | 0.0 | 0.0 | 0.00 | 0.13 | 0.00 | 78 | 1012.7 |
| 20260902054817 | 75 | 229 | 0.0 | 0.0 | 0.00 | 0.13 | 0.00 | 78 | 1012.7 |
| 20260902054326 | 75 | 229 | 0.0 | 0.0 | 0.00 | 0.13 | 0.00 | 78 | 1012.7 |
| 20260902053830 | 75 | 229 | 0.0 | 0.0 | 0.00 | 0.13 | 0.00 | 78 | 1012.7 |
| 20260902053315 | 75 | 229 | 0.0 | 0.0 | 0.00 | 0.13 | 0.00 | 79 | 1012.9 |
| 20260902052849 | 75 | 229 | 0.0 | 0.0 | 0.00 | 0.13 | 0.00 | 79 | 1012.9 |
| 20260902052314 | 75 | 229 | 0.0 | 0.0 | 0.00 | 0.13 | 0.00 | 79 | 1012.9 |
| 20260902051819 | 75 | 229 | 0.0 | 0.0 | 0.00 | 0.13 | 0.00 | 80 | 1012.9 |
| 20260902051324 | 75 | 229 | 0.0 | 0.0 | 0.00 | 0.13 | 0.00 | 80 | 1012.9 |
| 20260902050830 | 75 | 229 | 0.0 | 0.0 | 0.00 | 0.13 | 0.00 | 80 | 1012.9 |
| 20260902050314 | 75 | 229 | 0.0 | 0.0 | 0.00 | 0.13 | 0.00 | 80 | 1012.9 |
| 20260902045827 | 75 | 229 | 0.0 | 0.0 | 0.00 | 0.13 | 0.00 | 80 | 1012.9 |
| 20260902045342 | 75 | 229 | 0.0 | 0.0 | 0.00 | 0.13 | 0.00 | 80 | 1012.9 |
| 20260902044825 | 75 | 229 | 0.0 | 0.0 | 0.00 | 0.13 | 0.00 | 81 | 1012.8 |
| 20260902044328 | 75 | 229 | 0.0 | 0.0 | 0.00 | 0.13 | 0.00 | 81 | 1012.8 |
| 20260902043827 | 75 | 229 | 0.0 | 0.0 | 0.00 | 0.13 | 0.00 | 81 | 1012.8 |
| 20260902043326 | 75 | 229 | 0.0 | 0.0 | 0.00 | 0.13 | 0.00 | 81 | 1012.7 |
| 20260902042846 | 75 | 229 | 0.0 | 0.0 | 0.00 | 0.13 | 0.00 | 81 | 1012.7 |
| 20260902042331 | 75 | 229 | 0.0 | 0.0 | 0.00 | 0.13 | 0.00 | 81 | 1012.7 |
| 20260902041834 | 76 | 229 | 0.0 | 0.0 | 0.00 | 0.13 | 0.00 | 81 | 1012.6 |
| 20260902041314 | 76 | 229 | 0.0 | 0.0 | 0.00 | 0.13 | 0.00 | 82 | 1012.6 |
| 20260902040817 | 76 | 229 | 0.0 | 0.0 | 0.00 | 0.13 | 0.00 | 82 | 1012.6 |
| 20260902040345 | 76 | 229 | 0.0 | 0.0 | 0.00 | 0.13 | 0.13 | 82 | 1012.5 |
| 20260902035839 | 76 | 229 | 0.0 | 0.0 | 0.00 | 0.13 | 0.13 | 82 | 1012.5 |
| 20260902035321 | 76 | 229 | 0.0 | 0.0 | 0.00 | 0.13 | 0.13 | 82 | 1012.5 |
| 20260902034830 | 76 | 229 | 0.0 | 0.0 | 0.00 | 0.13 | 0.13 | 82 | 1012.3 |
| 20260902034332 | 76 | 229 | 0.0 | 0.0 | 0.00 | 0.13 | 0.13 | 82 | 1012.3 |
| 20260902033823 | 76 | 229 | 0.0 | 0.0 | 0.00 | 0.13 | 0.13 | 82 | 1012.3 |
| 20260902033329 | 76 | 229 | 0.0 | 0.0 | 0.00 | 0.13 | 0.13 | 82 | 1012.0 |
| 20260902032813 | 77 | 229 | 0.0 | 0.0 | 0.00 | 0.13 | 0.13 | 82 | 1012.0 |
| 20260902032319 | 77 | 229 | 0.0 | 0.0 | 0.00 | 0.13 | 0.13 | 82 | 1012.0 |
| 20260902031825 | 77 | 229 | 0.0 | 0.0 | 0.00 | 0.13 | 0.13 | 82 | 1011.5 |
| 20260902031336 | 77 | 229 | 0.0 | 0.0 | 0.00 | 0.13 | 0.13 | 82 | 1011.5 |
| 20260902030821 | 77 | 229 | 0.0 | 0.0 | 0.00 | 0.13 | 0.13 | 82 | 1011.5 |
| 20260902030321 | 77 | 229 | 0.0 | 0.0 | 0.00 | 0.13 | 0.13 | 82 | 1011.8 |
| 20260902025827 | 77 | 229 | 0.0 | 0.0 | 0.00 | 0.13 | 0.13 | 82 | 1011.8 |
| 20260902025338 | 77 | 229 | 0.0 | 0.0 | 0.00 | 0.13 | 0.13 | 82 | 1011.8 |
| 20260902024830 | 77 | 229 | 0.0 | 0.0 | 0.00 | 0.13 | 0.13 | 82 | 1012.1 |
| 20260902024336 | 77 | 229 | 0.0 | 0.0 | 0.00 | 0.13 | 0.13 | 82 | 1012.1 |
| 20260902023843 | 77 | 229 | 0.0 | 0.0 | 0.00 | 0.13 | 0.13 | 82 | 1012.1 |
| 20260902023335 | 77 | 229 | 0.0 | 0.0 | 0.00 | 0.13 | 0.13 | 82 | 1012.4 |
| 20260902022843 | 77 | 229 | 0.0 | 0.0 | 0.00 | 0.13 | 0.13 | 82 | 1012.4 |
| 20260902022327 | 77 | 229 | 0.0 | 0.0 | 0.00 | 0.13 | 0.13 | 82 | 1012.4 |
| 20260902021820 | 77 | 229 | 0.0 | 0.0 | 0.00 | 0.13 | 0.13 | 82 | 1012.5 |
| 20260902021325 | 77 | 229 | 0.0 | 0.0 | 0.00 | 0.13 | 0.13 | 82 | 1012.5 |
| 20260902020829 | 77 | 229 | 0.0 | 0.0 | 0.00 | 0.13 | 0.13 | 82 | 1012.5 |